Home > Weather > Irvine > Past weeks

Flag for U.S.A. Weather for the Past 2 Weeks in Irvine, California, U.S.A.

Now
55 °F

Fog.


Feels Like: 55 °F
Forecast: 50 / 79 °F
Wind: No wind

Location: John Wayne Airport-Orange County Airport

Current Time: Feb 13, 2016 at 1:34:10 AM

Latest Report: Feb 13, 2016 at 12:53 AM


Visibility: 3 mi

Pressure: 30.08 "Hg

Humidity: 100%

Dew point: 55 °F

Location of IrvineLocation

Historic Weather in Irvine — Graph

°F

Irvine Temperature Yesterday

Maximum temperature yesterday: 76 °F (at 11:53 AM)
Minimum temperature yesterday: 52 °F (at 5:53 AM)
Average temperature yesterday: 63 °F

High & Low Weather Summary for the Past Weeks

 TemperatureHumidityPressure
High88 °F (Feb 9, 12:53 PM)100% (Jan 31, 9:00 AM)30.36 "Hg (Jan 31, 9:00 AM)
Low37 °F (Feb 2, 4:53 AM)9% (Feb 7, 3:53 PM)29.64 "Hg (Jan 31, 1:53 PM)
Average61 °F46%30.10 "Hg
* Reported Jan 29 12:53 AM — Midnight between Feb 12 and Feb 13, Irvine, Weather by CustomWeather, © 2016

Note: Actual official high and low records may vary slightly from our data, if they occured in-between our weather recording intervals... More about our weather records

Advertising

Irvine Weather History for the Previous 24 Hours

 ConditionsComfort  
Time TempWeatherWind HumidityBarometerVisibility
12:00 AM
Sat, Feb 13
55 °FFog.No wind100%30.09 "Hg4 mi
10:53 PM
Fri, Feb 12
57 °FFog.5 mph100%30.08 "Hg0 mi
9:53 PM58 °FClear.No wind90%30.08 "Hg8 mi
8:53 PM60 °FClear.3 mph83%30.07 "Hg8 mi
7:53 PM60 °FPassing clouds.3 mph80%30.05 "Hg8 mi
6:53 PM62 °FPassing clouds.5 mph73%30.06 "Hg8 mi
5:53 PM65 °FPassing clouds.6 mph59%30.04 "Hg10 mi
4:53 PM69 °FScattered clouds.7 mph44%30.04 "Hg10 mi
3:53 PM72 °FScattered clouds.7 mph35%30.03 "Hg9 mi
2:53 PM74 °FScattered clouds.8 mph31%30.02 "Hg6 mi
1:53 PM76 °FScattered clouds.6 mph36%30.02 "Hg6 mi
12:53 PM76 °FScattered clouds.9 mph35%30.04 "Hg8 mi
11:53 AM76 °FScattered clouds.3 mph29%30.07 "Hg9 mi
10:53 AM73 °FScattered clouds.No wind33%30.10 "Hg9 mi
9:53 AM69 °FScattered clouds.3 mph35%30.11 "Hg10 mi
8:53 AM64 °FScattered clouds.No wind37%30.11 "Hg10 mi
7:53 AM58 °FPartly sunny.No wind44%30.10 "Hg10 mi
6:53 AM52 °FScattered clouds.No wind59%30.10 "Hg10 mi
5:53 AM52 °FClear.No wind59%30.08 "Hg10 mi
4:53 AM53 °FClear.No wind56%30.07 "Hg10 mi
3:53 AM54 °FClear.No wind55%30.07 "Hg10 mi
2:53 AM55 °FClear.No wind53%30.08 "Hg10 mi
1:53 AM56 °FClear.No wind51%30.09 "Hg10 mi
Weather by CustomWeather, © 2016

See weather overviewHow to use our weather pages